TimeCST,TemperatureF,Dew PointF,Humidity,Sea Level PressureIn,VisibilityMPH,Wind Direction,Wind SpeedMPH,Gust SpeedMPH,PrecipitationIn,Events,Conditions,WindDirDegrees,DateUTC
12:02 AM,53.6,50.0,88,29.87,5.0,WNW,12.7,-,N/A,Rain-Thunderstorm,Light Thunderstorms and Rain,300,2012-12-10 06:02:00
12:16 AM,53.6,51.8,94,29.90,4.0,West,10.4,-,0.03,Rain-Thunderstorm,Light Thunderstorms and Rain,270,2012-12-10 06:16:00
12:28 AM,53.6,50.0,88,29.91,6.0,WNW,12.7,-,0.03,Rain,Light Rain,290,2012-12-10 06:28:00
12:56 AM,51.1,50.0,96,29.86,6.0,NW,12.7,-,0.10,Rain,Light Rain,320,2012-12-10 06:56:00
1:39 AM,51.8,48.2,88,29.87,7.0,NW,12.7,-,0.00,Rain-Thunderstorm,Light Thunderstorms and Rain,320,2012-12-10 07:39:00
1:56 AM,51.1,48.0,89,29.88,4.0,NW,15.0,-,0.04,Rain-Thunderstorm,Thunderstorms and Rain,320,2012-12-10 07:56:00
2:31 AM,50.0,46.4,87,29.86,10.0,NW,11.5,-,0.05,Rain,Light Rain,320,2012-12-10 08:31:00
2:56 AM,50.0,46.0,86,29.86,10.0,NW,10.4,-,0.07,,Overcast,320,2012-12-10 08:56:00
3:53 AM,46.4,44.6,93,29.88,6.0,NW,15.0,-,0.10,Rain,Light Rain,320,2012-12-10 09:53:00
3:56 AM,46.9,43.0,86,29.88,6.0,NW,20.7,25.3,0.10,Rain,Light Rain,320,2012-12-10 09:56:00
4:56 AM,46.0,37.9,73,29.92,10.0,NW,15.0,-,0.01,,Overcast,320,2012-12-10 10:56:00
5:56 AM,42.1,30.9,65,29.94,10.0,NW,19.6,-,N/A,,Overcast,320,2012-12-10 11:56:00
6:56 AM,39.0,27.0,62,30.01,10.0,NW,21.9,28.8,N/A,,Overcast,320,2012-12-10 12:56:00
7:56 AM,39.0,25.0,57,30.01,10.0,NNW,13.8,-,N/A,,Overcast,330,2012-12-10 13:56:00
8:14 AM,39.2,24.8,56,30.02,10.0,NNW,16.1,-,N/A,,Overcast,330,2012-12-10 14:14:00
8:54 AM,39.2,24.8,56,30.03,10.0,NW,10.4,18.4,N/A,,Mostly Cloudy,320,2012-12-10 14:54:00
8:56 AM,39.9,24.1,53,30.03,10.0,NW,11.5,18.4,N/A,,Mostly Cloudy,320,2012-12-10 14:56:00
9:38 AM,41.0,24.8,53,30.05,10.0,NW,17.3,-,N/A,,Scattered Clouds,320,2012-12-10 15:38:00
9:56 AM,43.0,24.1,47,30.04,10.0,NNW,12.7,24.2,N/A,,Scattered Clouds,330,2012-12-10 15:56:00
10:56 AM,46.0,26.1,46,30.04,10.0,NNW,13.8,21.9,N/A,,Scattered Clouds,330,2012-12-10 16:56:00
11:56 AM,45.0,26.1,48,30.04,10.0,NNW,15.0,24.2,N/A,,Scattered Clouds,330,2012-12-10 17:56:00
12:56 PM,46.0,28.0,50,30.02,10.0,NW,10.4,24.2,N/A,,Clear,320,2012-12-10 18:56:00
1:56 PM,48.0,28.0,46,30.00,10.0,WNW,13.8,-,N/A,,Partly Cloudy,300,2012-12-10 19:56:00
2:56 PM,46.9,26.1,44,30.00,10.0,NNW,12.7,-,N/A,,Partly Cloudy,330,2012-12-10 20:56:00
3:56 PM,46.0,25.0,44,30.01,10.0,NW,12.7,-,N/A,,Partly Cloudy,310,2012-12-10 21:56:00
4:56 PM,44.1,25.0,47,30.03,10.0,NW,11.5,-,N/A,,Partly Cloudy,310,2012-12-10 22:56:00
5:56 PM,41.0,26.1,55,30.03,10.0,WNW,8.1,-,N/A,,Partly Cloudy,300,2012-12-10 23:56:00
6:56 PM,37.9,26.1,62,30.05,10.0,WNW,6.9,-,N/A,,Partly Cloudy,300,2012-12-11 00:56:00
7:56 PM,37.0,26.1,65,30.06,10.0,WNW,8.1,-,N/A,,Partly Cloudy,300,2012-12-11 01:56:00
8:56 PM,36.0,26.1,67,30.09,10.0,WNW,6.9,-,N/A,,Partly Cloudy,300,2012-12-11 02:56:00
9:56 PM,35.1,25.0,67,30.10,10.0,WNW,6.9,-,N/A,,Partly Cloudy,300,2012-12-11 03:56:00
10:56 PM,37.0,24.1,59,30.10,10.0,NNW,6.9,-,N/A,,Scattered Clouds,340,2012-12-11 04:56:00
11:56 PM,36.0,21.9,57,30.10,10.0,North,9.2,-,N/A,,Scattered Clouds,350,2012-12-11 05:56:00